Temperature
17 17 17 17 17 17 17 17 17 17 17 17 17 16 17 17 17 17 17 17 17 18 18 18 18 18 17 17 17 17 17 17 17 17 17 17 17 17 17 17 17 16 16
17 17 17 17 17 16 16 17 16 16 17 16 16 16 16 16 17 17 17 17 17 17 17 17 18 18 18 18 17 17 17 17 17 17 17 17 17 17 17 17 16 16 16
17 17 16 16 16 16 16 16 16 16 16 16 16 16 16 16 16 16 16 16 16 17 17 17 18 18 18 18 18 17 17 17 17 17 17 17 17 17 17 17 16 16 16
16 16 16 16 16 16 15 15 15 15 16 16 16 16 16 16 16 16 16 16 17 17 17 17 17 18 18 18 18 18 17 17 17 17 17 17 17 17 17 17 16 16 16
16 15 15 15 15 15 15 15 15 15 15 15 15 16 16 16 16 16 16 16 16 16 16 17 17 17 17 18 18 18 18 17 17 17 17 17 17 17 17 17 16 16 16
15 15 15 14 14 14 14 14 14 14 14 14 15 16 15 16 16 16 16 16 16 16 16 16 16 17 17 17 18 18 18 17 17 17 17 17 17 17 17 17 17 16 16
14 14 14 14 14 14 14 14 14 14 14 14 15 15 16 16 16 16 16 16 16 16 16 16 16 16 16 17 17 17 17 17 17 17 17 17 17 17 17 17 17 17 16
14 14 13 13 13 13 13 13 13 14 14 14 14 15 16 17 16 16 16 16 16 16 16 16 16 16 16 16 16 17 17 17 17 17 17 17 17 17 17 17 17 17 17
13 13 13 13 12 13 13 13 13 13 13 14 14 14 15 17 16 16 16 15 15 15 15 15 15 15 16 16 16 16 17 17 17 17 17 17 17 17 17 17 17 17 17
12 12 12 12 12 12 12 12 13 12 12 13 14 13 14 14 14 15 16 16 15 15 15 15 15 15 15 16 16 16 16 16 17 17 17 17 17 17 17 17 17 17 17
12 12 11 11 11 11 11 11 11 11 12 12 13 14 14 13 13 14 15 15 15 15 15 15 15 15 15 15 16 16 16 16 16 16 16 16 17 17 17 17 17 17 17
12 12 11 11 11 11 11 10 11 11 11 11 12 13 13 14 14 14 14 15 15 15 15 15 15 15 15 15 15 16 16 16 16 16 16 16 16 17 17 17 17 17 17
12 12 11 10 10 10 10 10 10 10 10 11 11 12 12 13 13 13 14 14 15 15 15 14 15 15 15 15 15 15 15 16 16 16 16 16 16 16 16 16 16 17 16
12 11 10 10 10 10 10 10 10 10 10 10 10 11 11 12 12 13 13 13 14 15 15 15 14 14 14 14 15 15 15 15 15 16 16 16 16 16 16 16 16 16 16
11 11 10 10 10 10 10 10 10 10 10 10 10 10 11 11 12 12 12 12 13 14 15 15 14 14 14 14 14 15 15 15 15 15 16 16 16 16 16 16 16 16 16
10 10 10 10 10 9 9 9 9 10 9 10 10 10 10 11 11 11 12 12 12 13 13 14 14 13 13 13 14 14 14 15 15 15 15 16 16 16 16 16 16 16 16
10 10 10 10 9 9 9 9 9 9 9 9 9 10 10 10 10 11 11 11 12 12 12 13 13 13 13 13 13 14 14 14 15 15 15 16 16 16 16 16 16 16 16
10 10 10 9 9 9 9 9 9 9 9 9 9 9 9 10 10 10 10 11 11 11 12 12 13 13 13 13 13 13 14 14 14 15 15 15 16 16 16 16 16 16 16
10 9 9 9 9 9 9 9 9 9 9 9 9 9 9 9 9 10 10 10 11 11 11 12 12 12 12 12 12 13 13 14 14 15 15 15 15 16 16 16 16 16 16
9 9 9 9 9 9 9 9 9 9 9 9 9 9 9 9 9 9 9 9 10 10 11 11 12 12 12 12 12 13 13 13 13 14 14 15 15 15 15 15 15 16 16
9 9 9 9 9 9 9 9 8 9 8 8 9 9 9 9 9 9 9 10 10 10 11 11 11 12 12 12 12 12 13 13 13 13 14 14 14 15 15 15 15 15 15
9 9 9 9 9 9 9 8 8 8 8 8 8 8 8 8 8 9 9 9 9 9 10 10 11 12 12 12 12 12 12 12 12 13 13 13 14 14 14 15 15 15 15
9 9 9 9 9 8 8 8 8 8 8 8 8 8 8 9 8 8 8 8 9 9 9 9 10 11 11 11 11 12 12 12 12 12 13 13 13 13 13 14 14 15 15
9 9 9 9 9 8 8 8 8 8 8 8 8 8 8 8 8 8 8 8 8 8 9 9 9 10 10 10 11 11 11 11 12 12 12 12 12 12 13 13 13 14 14
9 9 9 9 8 8 8 8 8 7 7 7 7 7 7 7 8 7 7 7 8 8 9 9 9 9 9 10 10 10 11 11 11 11 11 12 12 12 12 12 13 13 13
9 9 9 9 8 8 8 8 8 7 7 7 8 7 7 7 7 7 7 7 7 8 8 9 9 9 9 10 10 10 10 11 11 11 11 11 11 11 11 11 12 12 13
Wind_Speed
3 4 4 5 6 6 6 6 6 7 7 9 10 11 12 13 13 13 10 11 14 16 17 18 19 19 21 22 23 23 22 22 22 21 21 20 19 19 18 17 16 16 16
4 4 4 4 5 6 6 6 6 6 6 7 9 10 11 13 13 13 14 13 17 19 19 20 20 20 21 23 24 25 25 25 24 24 23 22 21 21 20 19 18 18 17
3 3 3 4 4 5 5 5 6 6 6 7 8 9 10 12 13 13 15 14 15 19 22 22 22 22 22 23 25 26 27 27 27 26 25 24 23 23 22 21 20 20 19
2 3 3 3 3 4 4 4 5 6 6 7 7 7 8 9 12 13 15 15 15 15 19 24 24 23 23 24 24 26 28 29 29 28 27 26 25 24 24 24 23 22 21
3 3 3 3 4 5 5 6 5 6 7 7 8 8 9 9 10 12 13 15 15 16 16 18 24 24 24 25 25 26 27 29 30 30 29 28 27 27 26 25 25 24 23
2 4 4 3 5 6 5 5 6 6 7 7 9 9 9 10 10 10 12 12 13 16 17 17 17 20 26 26 26 26 27 28 30 31 31 30 29 28 28 27 27 26 25
2 4 5 4 5 6 6 7 7 8 8 7 9 10 10 11 10 9 10 10 11 13 14 15 16 16 16 27 28 27 27 28 29 31 31 31 30 30 29 29 28 28 27
4 5 4 6 6 6 7 7 7 8 9 7 8 9 10 9 7 8 7 8 9 8 10 13 14 15 16 15 20 29 29 29 29 31 31 31 31 31 31 30 30 29 28
5 5 6 7 6 8 7 7 8 10 9 9 8 8 8 9 7 6 6 6 6 6 8 8 12 15 16 16 16 23 30 30 30 31 31 31 32 32 32 32 31 31 30
6 6 7 7 7 8 8 9 9 8 9 10 8 8 9 9 8 8 7 7 7 7 7 8 9 11 14 15 16 17 24 29 31 31 31 31 31 31 32 32 32 32 31
6 7 7 7 7 8 8 8 9 10 9 10 10 9 9 9 11 10 10 8 8 7 7 8 8 9 12 14 15 19 21 26 29 30 31 31 30 30 31 32 33 32 32
6 7 7 7 8 9 8 9 9 10 10 10 10 10 10 9 9 9 10 10 9 8 7 7 8 8 9 11 15 15 18 23 26 28 29 30 31 30 31 32 33 33 32
7 6 8 8 9 8 9 9 10 10 10 11 11 11 10 10 10 10 11 11 11 10 8 7 7 6 7 8 10 11 15 20 24 26 28 29 30 31 31 31 32 33 32
8 8 9 9 10 10 10 9 10 11 10 10 12 12 10 11 10 10 11 11 12 11 9 8 5 5 5 6 5 8 12 16 21 24 26 27 28 29 30 31 31 31 31
8 9 9 10 10 10 10 11 10 10 10 11 12 12 12 11 11 11 11 11 11 12 11 8 5 4 5 5 5 7 9 11 17 21 24 26 26 27 29 31 31 31 31
9 10 11 11 11 11 11 11 12 11 11 11 11 12 12 12 11 11 11 11 11 12 12 10 7 6 6 6 6 7 8 9 13 17 21 23 24 25 28 29 29 30 30
10 11 11 12 12 12 12 11 12 12 13 13 12 13 13 13 12 11 11 11 12 12 13 12 9 7 6 7 6 6 7 7 8 13 17 20 22 23 24 26 27 28 28
10 11 11 12 12 12 12 12 13 13 13 13 13 13 14 12 13 13 12 13 12 11 12 14 11 8 7 6 6 6 5 4 4 7 12 15 19 21 22 23 25 26 26
11 11 12 12 12 12 12 13 13 13 14 14 14 14 14 14 14 13 13 13 12 12 12 12 12 9 7 6 6 5 4 2 2 4 7 10 13 17 19 21 23 24 25
11 12 12 12 12 13 13 13 13 13 13 14 14 14 14 14 14 14 13 14 13 13 12 12 12 10 8 7 6 5 4 3 3 3 3 5 8 11 14 17 20 22 23
12 12 12 12 13 12 12 11 12 13 13 14 14 14 15 14 13 12 12 12 13 12 12 12 12 11 10 7 7 6 5 3 2 3 4 4 6 6 8 12 15 18 20
11 11 12 13 13 12 5 4 11 14 14 15 15 15 15 15 15 16 17 17 16 15 14 13 12 12 11 10 7 6 6 4 4 4 4 3 4 5 5 7 12 16 17
12 12 12 13 13 12 7 9 10 12 15 15 15 14 14 14 13 15 16 20 21 21 19 17 16 14 12 10 9 8 7 7 5 4 5 4 3 3 3 7 13 14 16
11 12 12 13 13 12 7 9 10 13 15 16 15 16 15 15 14 14 15 16 16 18 19 18 17 16 14 10 9 8 6 6 4 4 4 3 4 3 3 6 11 12 14
12 12 12 12 13 12 9 8 10 12 13 15 15 15 15 15 13 10 15 16 16 15 16 16 15 13 9 7 7 7 7 6 5 4 4 3 4 3 3 3 7 11 13
12 12 12 12 13 13 8 7 8 11 12 12 12 12 13 14 12 9 14 15 16 16 15 14 15 15 15 14 12 12 10 9 6 4 5 5 6 5 4 2 4 7 9
Wind_Direction
254 251 263 272 275 274 270 267 264 264 263 259 253 249 250 248 247 249 248 210 211 222 229 227 225 222 218 214 211 209 209 208 206 204 202 200 196 194 194 193 191 188 185
263 261 255 261 268 269 276 275 272 270 267 262 258 256 254 254 250 246 248 235 220 221 226 229 228 224 221 218 215 212 210 211 209 207 205 203 201 199 199 198 197 194 192
270 270 264 261 269 273 268 266 270 268 265 263 260 262 259 255 254 249 248 247 238 225 221 224 227 227 225 222 219 216 212 211 210 208 207 206 204 203 202 202 201 200 198
303 284 279 274 282 274 270 269 268 276 275 276 273 269 265 257 254 251 247 243 243 243 226 218 221 225 226 226 223 219 215 213 211 209 207 206 207 206 205 204 204 203 202
322 298 299 309 281 274 272 275 280 282 280 280 277 264 264 261 258 254 251 248 244 242 242 221 216 222 226 226 226 222 217 216 213 211 209 208 208 208 208 207 206 205 205
312 308 286 300 291 281 277 278 283 273 279 279 282 282 272 268 262 257 254 251 246 243 240 237 227 224 223 225 225 223 219 216 215 214 212 210 210 210 209 208 208 208 207
326 305 303 297 283 283 290 288 284 274 270 276 278 276 269 259 258 257 254 257 251 246 246 241 237 235 225 218 222 223 221 217 216 216 213 211 211 211 210 210 209 209 209
313 300 312 293 288 290 275 279 276 284 284 273 276 285 282 271 243 253 254 251 254 252 249 244 238 237 239 230 218 216 219 217 216 214 214 212 211 211 210 211 210 210 210
301 306 296 295 300 287 284 287 282 270 278 279 268 277 284 285 300 269 257 257 260 263 260 255 244 239 235 234 233 214 212 213 214 214 213 214 213 211 210 210 211 211 211
292 292 289 288 289 292 293 279 277 280 272 274 265 255 265 284 284 284 269 258 254 257 263 265 261 249 243 237 231 229 212 210 213 215 213 213 213 211 211 211 212 212 212
279 282 282 286 285 284 291 293 290 277 273 271 276 271 263 260 256 265 278 282 273 265 262 260 259 258 251 242 235 230 215 211 212 214 214 213 212 212 213 214 214 214 214
283 278 280 281 279 284 286 279 278 270 269 275 276 275 270 267 265 268 272 273 278 276 273 271 265 258 252 245 238 232 218 213 212 213 216 214 212 212 215 217 216 216 216
290 292 293 287 284 282 279 279 273 275 272 268 265 268 269 267 270 273 276 278 281 281 272 263 259 263 263 256 248 236 224 216 213 212 215 214 213 213 213 216 217 216 216
298 306 291 283 281 279 278 275 274 269 265 265 265 267 270 267 267 265 268 277 279 278 270 265 269 270 285 283 273 246 236 218 214 213 213 214 213 212 211 212 215 215 215
290 290 288 283 280 277 275 274 270 272 270 266 264 257 255 264 261 263 264 264 271 277 277 273 264 273 287 284 286 261 242 224 215 214 213 213 213 211 209 208 209 211 212
288 287 285 284 281 277 272 269 271 265 264 264 264 269 268 266 265 261 261 259 259 266 273 276 272 277 295 294 282 271 251 236 223 216 214 211 210 208 206 205 205 207 208
287 283 284 284 282 279 275 269 267 271 266 265 264 260 258 261 265 265 260 257 255 255 263 271 272 271 275 283 284 272 248 239 225 211 211 209 207 205 203 202 203 203 205
285 285 285 283 282 281 278 273 269 269 267 265 264 264 263 260 256 258 262 261 259 259 260 267 273 270 263 267 274 271 256 238 229 195 201 204 204 202 200 200 201 201 203
287 287 285 282 282 282 280 276 273 270 268 267 265 263 262 261 260 258 258 259 258 254 252 258 262 264 262 255 261 258 248 232 216 174 179 190 195 194 194 196 198 199 200
289 287 286 284 283 282 279 276 274 273 271 269 266 263 261 259 257 257 257 255 258 259 255 255 257 255 250 244 240 242 238 226 204 174 145 156 165 174 184 188 189 191 193
289 289 288 285 283 281 276 280 284 280 276 272 269 265 261 259 266 265 264 262 258 254 254 250 251 250 246 238 238 232 230 215 209 182 158 154 154 162 172 178 181 181 181
292 290 287 287 286 284 309 299 281 283 280 275 272 269 266 255 245 237 246 258 265 262 260 258 253 250 249 243 239 236 223 209 213 185 171 158 157 152 159 167 164 168 170
295 292 290 288 287 287 274 257 258 273 275 273 271 270 267 264 252 250 238 233 242 246 252 259 261 260 256 243 238 231 223 215 216 178 167 159 148 132 114 114 141 153 158
297 294 292 292 290 289 272 258 258 266 269 269 268 268 266 268 264 263 262 254 248 240 235 237 247 254 257 259 241 234 235 219 201 181 173 155 145 128 114 112 130 142 149
296 295 294 293 290 287 266 251 260 278 272 271 270 269 268 267 261 252 259 260 258 254 243 237 241 249 266 274 253 235 218 210 204 187 177 156 139 121 113 113 119 133 141
293 296 297 295 290 288 279 250 254 276 278 278 276 272 260 256 269 253 255 256 255 253 252 235 224 230 237 234 224 231 226 214 205 185 172 160 150 144 131 111 126 138 135
Height
1557 1557 1557 1557 1557 1558 1558 1558 1558 1558 1558 1558 1558 1559 1559 1560 1560 1561 1561 1561 1562 1564 1566 1568 1569 1572 1574 1576 1578 1580 1582 1584 1586 1589 1591 1593 1595 1597 1599 1601 1602 1604 1606
1554 1554 1554 1554 1554 1555 1555 1555 1554 1554 1554 1554 1554 1554 1553 1554 1554 1554 1556 1556 1557 1558 1560 1562 1564 1567 1569 1572 1574 1576 1579 1581 1583 1586 1588 1590 1593 1595 1597 1599 1601 1603 1605
1552 1551 1552 1551 1551 1552 1551 1551 1551 1550 1550 1550 1549 1549 1549 1549 1549 1549 1549 1550 1552 1552 1554 1556 1558 1561 1563 1566 1569 1572 1574 1577 1580 1582 1585 1587 1590 1592 1595 1597 1599 1601 1603
1549 1549 1550 1550 1549 1549 1549 1548 1548 1548 1548 1547 1546 1545 1545 1544 1544 1543 1544 1544 1545 1547 1547 1549 1551 1554 1557 1560 1563 1566 1569 1572 1575 1578 1580 1583 1586 1589 1591 1594 1597 1599 1601
1548 1548 1548 1547 1546 1547 1546 1546 1546 1545 1544 1543 1543 1542 1541 1540 1539 1539 1539 1539 1539 1540 1541 1542 1544 1547 1550 1553 1556 1559 1562 1566 1569 1573 1576 1578 1582 1585 1588 1590 1593 1596 1598
1546 1546 1546 1544 1544 1544 1543 1543 1541 1541 1540 1540 1539 1538 1537 1536 1535 1534 1534 1534 1534 1534 1535 1536 1538 1540 1542 1545 1548 1551 1555 1559 1563 1566 1570 1573 1576 1580 1583 1586 1589 1592 1595
1544 1543 1543 1542 1541 1541 1540 1539 1539 1538 1538 1537 1536 1535 1533 1531 1530 1529 1529 1528 1528 1529 1529 1530 1531 1533 1535 1537 1540 1544 1547 1551 1555 1559 1564 1567 1571 1574 1578 1582 1585 1588 1591
1541 1541 1539 1539 1538 1537 1536 1535 1534 1534 1534 1534 1533 1532 1529 1528 1526 1525 1524 1524 1523 1523 1524 1524 1524 1526 1528 1531 1532 1535 1539 1543 1547 1552 1556 1561 1564 1569 1572 1576 1580 1583 1587
1538 1537 1536 1535 1534 1534 1534 1532 1531 1531 1531 1530 1530 1529 1527 1524 1523 1522 1521 1520 1519 1518 1518 1519 1519 1520 1521 1524 1526 1528 1531 1535 1539 1544 1548 1553 1558 1562 1566 1570 1574 1578 1582
1535 1534 1533 1532 1531 1531 1530 1529 1529 1527 1527 1526 1526 1525 1525 1523 1522 1519 1518 1517 1516 1514 1514 1514 1514 1515 1515 1517 1519 1521 1524 1527 1531 1536 1540 1545 1550 1555 1559 1564 1568 1572 1576
1532 1531 1530 1529 1527 1527 1526 1524 1523 1523 1523 1523 1522 1521 1520 1519 1518 1517 1515 1514 1513 1512 1511 1510 1509 1510 1510 1511 1512 1514 1517 1519 1523 1527 1532 1537 1542 1547 1552 1557 1561 1565 1570
1530 1529 1527 1525 1524 1523 1522 1520 1519 1518 1518 1517 1517 1517 1516 1516 1514 1513 1511 1510 1509 1508 1507 1506 1505 1505 1504 1505 1506 1508 1509 1512 1516 1520 1524 1529 1534 1539 1544 1549 1554 1559 1563
1527 1525 1523 1521 1520 1518 1517 1516 1515 1514 1513 1512 1512 1512 1512 1511 1511 1510 1509 1506 1505 1504 1502 1501 1500 1500 1499 1500 1500 1501 1503 1505 1508 1512 1516 1521 1526 1531 1536 1542 1547 1552 1556
1523 1521 1518 1517 1515 1514 1513 1511 1510 1510 1508 1507 1507 1506 1506 1506 1506 1505 1505 1504 1501 1499 1498 1497 1496 1495 1495 1494 1494 1495 1497 1498 1501 1505 1509 1513 1519 1524 1529 1534 1540 1545 1549
1519 1517 1515 1512 1511 1509 1507 1506 1505 1504 1503 1502 1502 1502 1501 1501 1501 1500 1500 1500 1499 1496 1494 1493 1492 1491 1490 1490 1489 1489 1491 1493 1495 1498 1502 1506 1511 1516 1522 1527 1533 1538 1543
1513 1512 1510 1508 1506 1504 1503 1501 1500 1499 1498 1497 1496 1496 1495 1496 1495 1495 1495 1494 1494 1493 1490 1490 1489 1488 1487 1486 1485 1485 1485 1487 1489 1492 1495 1499 1503 1509 1514 1520 1526 1531 1536
1509 1507 1505 1503 1501 1500 1498 1496 1495 1494 1493 1492 1491 1490 1490 1489 1489 1489 1489 1489 1488 1488 1486 1485 1485 1483 1482 1481 1481 1481 1481 1482 1484 1486 1489 1493 1497 1502 1507 1513 1519 1524 1529
1505 1503 1500 1498 1496 1494 1492 1491 1489 1488 1487 1486 1485 1485 1484 1484 1483 1483 1483 1483 1483 1482 1482 1480 1480 1479 1478 1477 1477 1477 1477 1478 1479 1481 1483 1487 1491 1496 1501 1506 1512 1517 1523
1500 1498 1495 1493 1491 1489 1487 1485 1484 1482 1481 1480 1479 1479 1478 1478 1477 1477 1476 1477 1477 1477 1476 1476 1475 1475 1474 1474 1473 1473 1473 1474 1475 1477 1479 1482 1486 1490 1495 1500 1506 1511 1517
1495 1493 1490 1488 1485 1483 1481 1480 1478 1477 1475 1474 1473 1472 1472 1471 1471 1470 1470 1470 1470 1471 1471 1471 1470 1470 1470 1470 1469 1469 1470 1471 1471 1473 1475 1478 1482 1486 1490 1495 1501 1506 1511
1491 1488 1485 1482 1480 1478 1476 1475 1473 1471 1470 1468 1466 1465 1465 1464 1464 1464 1465 1465 1465 1465 1465 1465 1465 1465 1465 1465 1466 1466 1466 1467 1468 1469 1471 1474 1478 1481 1485 1490 1495 1501 1506
1486 1483 1480 1477 1475 1473 1471 1468 1466 1464 1463 1461 1460 1458 1458 1457 1456 1456 1456 1457 1458 1459 1459 1460 1460 1460 1460 1461 1462 1462 1463 1464 1465 1466 1469 1471 1474 1478 1482 1486 1490 1496 1501
1481 1478 1475 1472 1469 1467 1464 1462 1460 1458 1456 1455 1453 1452 1451 1451 1450 1450 1449 1449 1449 1450 1452 1453 1454 1454 1456 1457 1457 1458 1459 1460 1462 1463 1466 1468 1471 1475 1478 1482 1486 1491 1496
1477 1473 1470 1467 1463 1461 1458 1456 1453 1451 1449 1448 1446 1445 1443 1443 1443 1443 1443 1443 1442 1443 1444 1445 1446 1448 1451 1452 1452 1453 1454 1456 1459 1460 1462 1465 1468 1472 1476 1479 1483 1488 1493
1472 1468 1465 1461 1458 1455 1452 1450 1447 1445 1443 1441 1440 1438 1436 1435 1435 1435 1435 1435 1435 1436 1437 1438 1440 1442 1444 1445 1447 1450 1451 1452 1454 1456 1459 1462 1465 1469 1473 1477 1481 1485 1489
1467 1464 1460 1456 1453 1450 1447 1444 1442 1439 1438 1435 1433 1431 1429 1428 1428 1427 1427 1427 1427 1429 1431 1432 1432 1434 1436 1439 1441 1444 1446 1448 1450 1452 1454 1458 1462 1466 1470 1474 1478 1482 1486